EW5239 Weather Reports


Display with metric or nautical units.
time (UTC)temp
F
wind
direction
speed
MPH
gust
MPH
rain 1hr
in
rain 24hr
in
rain mn
in
humidity
%
barometer
mb
20260903013507 53 0 0.0 0.0 0.00 0.00 0.00 96 1016.9
20260903013453 53 0 0.0 0.0 0.00 0.00 0.00 98 1018.7
20260903013006 53 0 0.0 0.0 0.00 0.00 0.00 96 1016.9
20260903012953 53 0 0.0 0.0 0.00 0.00 0.00 98 1018.9
20260903012454 53 0 0.0 0.0 0.00 0.00 0.00 98 1018.7
20260903012007 54 0 0.0 0.0 0.00 0.00 0.00 95 1016.8
20260903011953 54 0 0.0 0.0 0.00 0.00 0.00 97 1018.9
20260903011453 54 0 0.0 0.0 0.00 0.00 0.00 97 1018.8
20260903011006 54 0 0.0 0.0 0.00 0.00 0.00 95 1016.9
20260903010953 54 0 0.0 0.0 0.00 0.00 0.00 97 1018.8
20260903010507 54 0 0.0 0.0 0.00 0.00 0.00 95 1016.7
20260903010453 54 0 0.0 0.0 0.00 0.00 0.00 97 1018.9
20260903010007 54 0 0.0 0.0 0.00 0.00 0.00 95 1016.9
20260903005507 54 0 0.0 0.0 0.00 0.00 0.00 95 1016.9
20260903005007 55 0 0.0 0.0 0.00 0.00 0.00 95 1016.8
20260903004953 55 0 0.0 0.0 0.00 0.00 0.00 97 1018.8
20260903004506 55 0 0.0 0.0 0.00 0.00 0.00 95 1017.0
20260903004454 55 0 0.0 0.0 0.00 0.00 0.00 97 1018.8
20260903004006 55 0 0.0 0.0 0.00 0.00 0.00 95 1016.8
20260903003953 55 0 0.0 0.0 0.00 0.00 0.00 97 1018.9
20260903003507 55 0 0.0 0.0 0.00 0.00 0.00 95 1016.9
20260903003453 55 0 0.0 0.0 0.00 0.00 0.00 97 1018.8
20260903002954 55 0 0.0 0.0 0.00 0.00 0.00 97 1018.8
20260903002506 55 0 0.0 0.0 0.00 0.00 0.00 95 1016.7
20260903002453 55 0 0.0 0.0 0.00 0.00 0.00 97 1018.8
20260903002007 55 0 0.0 0.0 0.00 0.00 0.00 95 1016.9
20260903001507 55 0 0.0 0.0 0.00 0.00 0.00 95 1016.8
20260903001454 55 0 0.0 0.0 0.00 0.00 0.00 97 1018.8
20260903001006 55 0 0.0 0.0 0.00 0.00 0.00 95 1016.8
20260903000953 55 0 0.0 0.0 0.00 0.00 0.00 97 1018.7
20260903000506 55 0 0.0 0.0 0.00 0.00 0.00 95 1016.8
20260903000454 55 0 0.0 0.0 0.00 0.00 0.00 97 1018.8
20260903000007 55 0 0.0 0.0 0.00 0.00 0.00 95 1016.7
20260902235454 55 0 0.0 0.0 0.00 0.00 0.00 96 1018.8
20260902235006 56 0 0.0 0.0 0.00 0.00 0.00 95 1016.8
20260902234953 55 0 0.0 0.0 0.00 0.00 0.00 96 1018.9
20260902234507 56 0 0.0 0.0 0.00 0.00 0.00 95 1016.8
20260902234453 55 0 0.0 0.0 0.00 0.00 0.00 96 1018.8
20260902234006 55 0 0.0 0.0 0.00 0.00 0.00 95 1016.8
20260902233953 55 0 0.0 0.0 0.00 0.00 0.00 96 1018.9
20260902233506 56 0 0.0 0.0 0.00 0.00 0.00 95 1016.8
20260902233453 55 0 0.0 0.0 0.00 0.00 0.00 96 1019.0
20260902233007 56 0 0.0 0.0 0.00 0.00 0.00 95 1016.7
20260902232954 56 0 0.0 0.0 0.00 0.00 0.00 96 1018.9
20260902232506 56 0 0.0 0.0 0.00 0.00 0.00 94 1016.7
20260902232453 56 0 0.0 0.0 0.00 0.00 0.00 96 1018.8
20260902232006 56 0 0.0 0.0 0.00 0.00 0.00 94 1016.9
20260902231954 56 0 0.0 0.0 0.00 0.00 0.00 95 1018.9
20260902231507 56 0 0.0 0.0 0.00 0.00 0.00 94 1016.7
20260902231453 56 0 0.0 0.0 0.00 0.00 0.00 95 1019.0
20260902230506 56 0 0.0 0.0 0.00 0.00 0.00 94 1016.9
20260902230453 56 0 0.0 0.0 0.00 0.00 0.00 95 1018.8
20260902230007 56 0 0.0 0.0 0.00 0.00 0.00 93 1016.9
20260902225959 56 0 0.0 0.0 0.00 0.00 0.00 94 1018.9
20260902225453 56 0 0.0 0.0 0.00 0.00 0.00 94 1018.8
20260902225006 56 0 0.0 0.0 0.00 0.00 0.00 93 1016.9
20260902224954 56 0 0.0 0.0 0.00 0.00 0.00 94 1018.8
20260902224507 56 0 0.0 0.0 0.00 0.00 0.00 93 1016.9
20260902224454 56 0 0.0 0.0 0.00 0.00 0.00 93 1018.8
20260902224007 56 0 0.0 0.0 0.00 0.00 0.00 92 1016.8
20260902223953 56 0 0.0 0.0 0.00 0.00 0.00 92 1018.9
20260902223506 56 0 0.0 0.0 0.00 0.00 0.00 92 1016.7
20260902223453 56 0 0.0 0.0 0.00 0.00 0.00 92 1018.8
20260902222506 56 0 0.0 0.0 0.00 0.00 0.00 92 1016.8
20260902222453 56 0 0.0 0.0 0.00 0.00 0.00 92 1018.7
20260902222007 57 0 0.0 0.0 0.00 0.00 0.00 92 1016.6
20260902221954 56 0 0.0 0.0 0.00 0.00 0.00 92 1018.5
20260902221453 57 0 0.0 0.0 0.00 0.00 0.00 91 1018.6
20260902220954 57 0 0.0 0.0 0.00 0.00 0.00 91 1018.6
20260902220506 57 0 0.0 0.0 0.00 0.00 0.00 90 1016.7
20260902220453 57 0 0.0 0.0 0.00 0.00 0.00 91 1018.7
20260902220007 57 0 0.0 0.0 0.00 0.00 0.00 90 1016.7
20260902215454 57 0 0.0 0.0 0.00 0.00 0.00 89 1018.7
20260902215006 57 0 0.0 0.0 0.00 0.00 0.00 90 1016.7
20260902214506 58 0 0.0 0.0 0.00 0.00 0.00 90 1016.7
20260902214454 57 0 0.0 0.0 0.00 0.00 0.00 89 1018.7
20260902213953 58 0 0.0 0.0 0.00 0.00 0.00 89 1018.6
20260902213506 58 0 0.0 0.0 0.00 0.00 0.00 89 1016.7
20260902212954 58 0 0.0 0.0 0.00 0.00 0.00 88 1018.7
20260902212507 58 0 0.0 0.0 0.00 0.00 0.00 88 1016.7
20260902212453 58 0 0.0 0.0 0.00 0.00 0.00 88 1018.6
20260902212006 58 0 0.0 0.0 0.00 0.00 0.00 88 1016.7
20260902211953 58 0 0.0 0.0 0.00 0.00 0.00 88 1018.5
20260902211507 58 0 0.0 0.0 0.00 0.00 0.00 88 1016.6
20260902211007 59 0 0.0 0.0 0.00 0.00 0.00 88 1016.7
20260902210954 59 0 0.0 0.0 0.00 0.00 0.00 88 1018.5
20260902210506 59 0 0.0 0.0 0.00 0.00 0.00 88 1016.6
20260902210006 59 0 0.0 0.0 0.00 0.00 0.00 86 1016.5
20260902205959 59 0 0.0 0.0 0.00 0.00 0.00 86 1018.7
20260902205507 59 0 0.0 0.0 0.00 0.00 0.00 86 1016.8
20260902205453 60 0 0.0 0.0 0.00 0.00 0.00 86 1018.6
20260902205006 60 0 0.0 0.0 0.00 0.00 0.00 86 1016.5
20260902204953 60 0 0.0 0.0 0.00 0.00 0.00 86 1018.7
20260902204506 60 0 0.0 0.0 0.00 0.00 0.00 86 1016.7
20260902203953 60 0 0.0 0.0 0.00 0.00 0.00 86 1018.4
20260902203506 60 0 0.0 0.0 0.00 0.00 0.00 86 1016.7
20260902203006 60 0 0.0 0.0 0.00 0.00 0.00 86 1016.9
20260902202507 60 0 0.0 0.0 0.00 0.00 0.00 86 1016.6
20260902202453 60 0 0.0 0.0 0.00 0.00 0.00 86 1018.7
20260902202006 61 0 0.0 0.0 0.00 0.00 0.00 86 1016.8
20260902201953 61 0 0.0 0.0 0.00 0.00 0.00 87 1018.6
20260902201506 61 0 0.0 0.0 0.00 0.00 0.00 87 1016.8
20260902201455 61 181 1.0 2.0 0.00 0.00 0.00 87 1018.9
20260902201007 61 0 0.0 0.0 0.00 0.00 0.00 87 1016.9
20260902200953 61 181 1.0 2.0 0.00 0.00 0.00 87 1018.9
20260902200507 60 0 0.0 0.0 0.00 0.00 0.00 87 1017.0
20260902200453 61 181 1.0 2.0 0.00 0.00 0.00 87 1018.9
20260902200006 60 225 0.0 1.0 0.00 0.00 0.00 87 1017.0
20260902195959 61 181 1.0 2.0 0.00 0.00 0.00 87 1019.2
20260902195506 60 225 0.0 1.0 0.00 0.00 0.00 87 1017.1
20260902195454 61 181 0.0 1.0 0.00 0.00 0.00 87 1019.0
20260902194506 60 0 0.0 0.0 0.00 0.00 0.00 86 1017.1
20260902194453 60 181 0.0 2.0 0.00 0.00 0.00 86 1019.0
20260902194007 61 0 0.0 0.0 0.00 0.00 0.00 86 1016.9
20260902193953 61 181 0.0 1.0 0.00 0.00 0.00 86 1019.0
20260902193507 61 0 0.0 0.0 0.00 0.00 0.00 86 1017.1
20260902193453 61 225 0.0 1.0 0.00 0.00 0.00 86 1018.9
20260902193006 61 270 0.0 1.0 0.00 0.00 0.00 85 1017.1
20260902192954 61 225 1.0 2.0 0.00 0.00 0.00 84 1019.0
20260902192506 61 270 0.0 1.0 0.00 0.00 0.00 84 1017.1
20260902192453 61 225 1.0 2.0 0.00 0.00 0.00 84 1019.1
20260902192007 61 270 0.0 1.0 0.00 0.00 0.00 84 1017.2
20260902191506 61 181 0.0 1.0 0.00 0.00 0.00 84 1017.2
20260902191453 62 140 1.0 2.0 0.00 0.00 0.00 84 1019.0
20260902191006 61 181 0.0 1.0 0.00 0.00 0.00 84 1017.2
20260902190953 62 148 1.0 2.0 0.00 0.00 0.00 83 1019.1
20260902190507 61 181 0.0 1.0 0.00 0.00 0.00 83 1017.1
20260902190454 62 168 1.0 2.0 0.00 0.00 0.00 83 1019.2
20260902190006 61 181 0.0 1.0 0.00 0.00 0.00 83 1017.2
20260902185959 62 181 1.0 2.0 0.00 0.00 0.00 83 1019.1
20260902185506 61 0 0.0 0.0 0.00 0.00 0.00 83 1017.3
20260902185453 62 181 0.0 1.0 0.00 0.00 0.00 83 1019.1
20260902185007 62 0 0.0 0.0 0.00 0.00 0.00 82 1017.3
20260902184506 62 0 0.0 0.0 0.00 0.00 0.00 82 1017.1
20260902184453 62 181 0.0 1.0 0.00 0.00 0.00 82 1019.2
20260902184006 62 181 0.0 1.0 0.00 0.00 0.00 82 1017.3
20260902183506 62 181 0.0 1.0 0.00 0.00 0.00 82 1017.2
20260902183453 62 172 1.0 2.0 0.00 0.00 0.00 80 1019.3
20260902183007 62 0 0.0 0.0 0.00 0.00 0.00 81 1017.2
20260902182506 62 0 0.0 0.0 0.00 0.00 0.00 80 1017.1
20260902182454 63 0 0.0 0.0 0.00 0.00 0.00 77 1019.1
20260902182006 62 0 0.0 0.0 0.00 0.00 0.00 79 1017.1
20260902181953 63 0 0.0 0.0 0.00 0.00 0.00 77 1019.0
20260902181507 63 0 0.0 0.0 0.00 0.00 0.00 77 1017.0
20260902180953 63 0 0.0 0.0 0.00 0.00 0.00 76 1019.1
20260902180507 63 0 0.0 0.0 0.00 0.00 0.00 76 1016.9
20260902180453 64 0 0.0 0.0 0.00 0.00 0.00 75 1018.9
20260902180007 64 0 0.0 0.0 0.00 0.00 0.00 75 1016.9
20260902175959 64 0 0.0 0.0 0.00 0.00 0.00 74 1018.9
20260902175453 64 0 0.0 0.0 0.00 0.00 0.00 74 1019.0
20260902175007 64 0 0.0 0.0 0.00 0.00 0.00 74 1017.1
20260902174953 64 0 0.0 0.0 0.00 0.00 0.00 73 1018.8
20260902174506 65 0 0.0 0.0 0.00 0.00 0.00 73 1017.0
20260902174453 64 225 0.0 2.0 0.00 0.00 0.00 73 1018.6
20260902173954 65 225 1.0 2.0 0.00 0.00 0.00 72 1018.8
20260902173507 65 0 0.0 0.0 0.00 0.00 0.00 72 1016.8
20260902173006 65 0 0.0 0.0 0.00 0.00 0.00 71 1016.7
20260902172953 65 241 2.0 2.0 0.00 0.00 0.00 70 1018.7
20260902172506 66 0 0.0 0.0 0.00 0.00 0.00 71 1016.7
20260902172454 65 225 2.0 2.0 0.00 0.00 0.00 70 1018.7
20260902172007 66 0 0.0 0.0 0.00 0.00 0.00 71 1016.7
20260902171953 66 225 2.0 2.0 0.00 0.00 0.00 70 1018.6
20260902171453 66 225 2.0 2.0 0.00 0.00 0.00 69 1018.6
20260902171006 66 0 0.0 0.0 0.00 0.00 0.00 69 1016.6
20260902170954 66 225 2.0 2.0 0.00 0.00 0.00 68 1018.6
20260902170507 67 304 0.0 2.0 0.00 0.00 0.00 68 1016.7
20260902170453 66 229 2.0 2.0 0.00 0.00 0.00 67 1018.6
20260902170000 67 249 2.0 2.0 0.00 0.00 0.00 67 1018.8
20260902165506 67 272 0.0 2.0 0.00 0.00 0.00 67 1016.7
20260902165453 67 268 2.0 2.0 0.00 0.00 0.00 66 1018.7
20260902164953 67 274 2.0 2.0 0.00 0.00 0.00 66 1018.5
20260902164506 67 270 2.0 2.0 0.00 0.00 0.00 66 1016.7
20260902163953 67 271 2.0 2.0 0.00 0.00 0.00 66 1018.5
20260902163507 68 273 2.0 2.0 0.00 0.00 0.00 66 1016.5
20260902163453 68 279 2.0 3.0 0.00 0.00 0.00 65 1018.6
20260902163006 68 272 2.0 3.0 0.00 0.00 0.00 64 1016.7
20260902162953 68 281 3.0 3.0 0.00 0.00 0.00 65 1018.5
20260902162453 68 279 3.0 3.0 0.00 0.00 0.00 64 1018.6
20260902162007 68 287 3.0 3.0 0.00 0.00 0.00 64 1016.7
20260902161953 68 270 3.0 3.0 0.00 0.00 0.00 64 1018.5
20260902161506 68 280 3.0 4.0 0.00 0.00 0.00 64 1016.8
20260902161454 68 271 3.0 4.0 0.00 0.00 0.00 63 1018.8
20260902160953 68 269 4.0 4.0 0.00 0.00 0.00 63 1018.7
20260902160506 69 283 4.0 4.0 0.00 0.00 0.00 63 1016.7
20260902160453 68 280 4.0 4.0 0.00 0.00 0.00 63 1018.7
20260902160009 69 282 4.0 4.0 0.00 0.00 0.00 63 1016.8
20260902160000 68 288 4.0 4.0 0.00 0.00 0.00 63 1018.7
20260902155506 69 268 4.0 4.0 0.00 0.00 0.00 63 1016.8
20260902155453 69 278 4.0 4.0 0.00 0.00 0.00 62 1018.8
20260902155007 69 285 4.0 5.0 0.00 0.00 0.00 62 1016.7
20260902154953 69 289 4.0 6.0 0.00 0.00 0.00 61 1018.8
20260902154506 69 271 5.0 5.0 0.00 0.00 0.00 61 1016.8
20260902154453 69 300 4.0 6.0 0.00 0.00 0.00 60 1018.7
20260902154006 69 249 5.0 6.0 0.00 0.00 0.00 60 1016.7
20260902153953 69 289 5.0 7.0 0.00 0.00 0.00 59 1018.7
20260902153506 69 265 6.0 9.0 0.00 0.00 0.00 59 1016.8
20260902153453 69 289 7.0 9.0 0.00 0.00 0.00 58 1018.7
20260902153006 70 271 6.0 9.0 0.00 0.00 0.00 57 1016.8
20260902152953 70 278 7.0 9.0 0.00 0.00 0.00 58 1018.7
20260902152506 70 275 6.0 8.0 0.00 0.00 0.00 58 1017.0
20260902151953 70 280 8.0 12.0 0.00 0.00 0.00 56 1019.0
20260902151506 70 285 7.0 11.0 0.00 0.00 0.00 57 1017.0
20260902151453 70 290 7.0 12.0 0.00 0.00 0.00 56 1019.0
20260902151006 70 269 6.0 8.0 0.00 0.00 0.00 57 1016.9
20260902150953 70 294 7.0 9.0 0.00 0.00 0.00 56 1019.0
20260902150506 70 271 7.0 11.0 0.00 0.00 0.00 57 1016.9
20260902150454 70 284 8.0 11.0 0.00 0.00 0.00 56 1018.9
20260902150006 71 292 8.0 11.0 0.00 0.00 0.00 56 1016.8
20260902145959 71 283 8.0 11.0 0.00 0.00 0.00 55 1019.0
20260902145506 71 292 8.0 10.0 0.00 0.00 0.00 55 1016.9
20260902145453 71 284 8.0 11.0 0.00 0.00 0.00 54 1019.0
20260902145006 71 282 7.0 9.0 0.00 0.00 0.00 55 1016.9
20260902144953 71 271 7.0 10.0 0.00 0.00 0.00 54 1019.1
20260902144007 71 285 7.0 10.0 0.00 0.00 0.00 56 1016.9
20260902143954 71 281 8.0 11.0 0.00 0.00 0.00 54 1018.7
20260902143506 71 283 6.0 9.0 0.00 0.00 0.00 56 1016.8
20260902143453 71 287 7.0 10.0 0.00 0.00 0.00 54 1018.8
20260902143006 71 264 6.0 8.0 0.00 0.00 0.00 56 1016.8
20260902142954 71 304 7.0 9.0 0.00 0.00 0.00 54 1018.8
20260902142506 71 255 6.0 8.0 0.00 0.00 0.00 56 1016.8
20260902142453 71 280 7.0 9.0 0.00 0.00 0.00 55 1019.0
20260902142007 71 255 6.0 7.0 0.00 0.00 0.00 58 1016.7
20260902141953 71 267 6.0 7.0 0.00 0.00 0.00 57 1019.0
20260902141453 71 264 6.0 7.0 0.00 0.00 0.00 56 1019.0
20260902141006 71 266 5.0 8.0 0.00 0.00 0.00 57 1016.8
20260902140953 71 269 5.0 8.0 0.00 0.00 0.00 55 1018.9
20260902140006 71 282 7.0 9.0 0.00 0.00 0.00 56 1017.0
20260902135959 71 298 8.0 10.0 0.00 0.00 0.00 55 1018.9
20260902135506 71 287 8.0 11.0 0.00 0.00 0.00 56 1017.1
20260902135453 71 311 9.0 13.0 0.00 0.00 0.00 54 1019.1
20260902135006 71 290 10.0 13.0 0.00 0.00 0.00 58 1017.2
20260902134953 71 318 11.0 13.0 0.00 0.00 0.00 56 1019.0
20260902134506 71 291 9.0 13.0 0.00 0.00 0.00 58 1017.1
20260902134453 71 305 10.0 13.0 0.00 0.00 0.00 57 1019.2
20260902134006 71 277 7.0 11.0 0.00 0.00 0.00 59 1017.4
20260902133506 71 274 8.0 13.0 0.00 0.00 0.00 60 1017.2
20260902133007 71 306 9.0 13.0 0.00 0.00 0.00 59 1017.2
20260902132953 71 292 9.0 13.0 0.00 0.00 0.00 58 1019.3
20260902132506 71 311 8.0 11.0 0.00 0.00 0.00 59 1017.2
20260902132006 71 284 8.0 13.0 0.00 0.00 0.00 59 1017.2
20260902131953 71 297 9.0 14.0 0.00 0.00 0.00 58 1019.3
20260902131506 71 259 9.0 14.0 0.00 0.00 0.00 58 1017.4
20260902131453 71 321 10.0 14.0 0.00 0.00 0.00 57 1019.4
20260902130506 70 279 12.0 16.0 0.00 0.00 0.00 58 1017.4
20260902130453 70 301 12.0 16.0 0.00 0.00 0.00 56 1019.3
20260902130006 70 290 11.0 14.0 0.00 0.00 0.00 58 1017.4
20260902130002 70 305 11.0 15.0 0.00 0.00 0.00 57 1019.3
20260902125506 71 300 11.0 14.0 0.00 0.00 0.00 58 1017.3
20260902125007 71 268 9.0 11.0 0.00 0.00 0.00 61 1017.4
20260902124953 71 265 9.0 11.0 0.00 0.00 0.00 59 1019.1
20260902124506 71 269 9.0 12.0 0.00 0.00 0.00 60 1017.4
20260902124453 71 265 9.0 12.0 0.00 0.00 0.00 59 1019.0
20260902123953 71 270 9.0 15.0 0.00 0.00 0.00 59 1019.3
20260902123506 70 276 9.0 14.0 0.00 0.00 0.00 63 1017.5
20260902123453 71 272 9.0 15.0 0.00 0.00 0.00 62 1019.2
20260902123006 70 282 9.0 12.0 0.00 0.00 0.00 62 1017.6
20260902122954 70 268 9.0 14.0 0.00 0.00 0.00 62 1019.3
20260902122506 70 299 9.0 12.0 0.00 0.00 0.00 63 1017.6
20260902122453 70 291 9.0 14.0 0.00 0.00 0.00 61 1019.5
20260902122006 70 304 9.0 11.0 0.00 0.00 0.00 63 1017.7
20260902121953 70 308 9.0 11.0 0.00 0.00 0.00 63 1019.6
20260902121507 70 297 9.0 12.0 0.00 0.00 0.00 64 1017.9
20260902121006 70 274 9.0 12.0 0.00 0.00 0.00 64 1017.8
20260902120954 69 255 9.0 11.0 0.00 0.00 0.00 63 1019.4
20260902120506 69 275 8.0 10.0 0.00 0.00 0.00 65 1017.9
20260902120453 69 271 9.0 12.0 0.00 0.00 0.00 64 1019.7
20260902120006 69 290 7.0 10.0 0.00 0.00 0.00 65 1017.9
20260902120000 69 289 7.0 12.0 0.00 0.00 0.00 64 1019.7
20260902115455 69 262 6.0 10.0 0.00 0.00 0.00 63 1019.5
20260902115006 70 271 7.0 11.0 0.00 0.00 0.00 62 1017.9
20260902114953 70 265 7.0 11.0 0.00 0.00 0.00 60 1019.6
20260902114506 70 275 8.0 11.0 0.00 0.00 0.00 62 1017.8
20260902114453 70 282 8.0 11.0 0.00 0.00 0.00 60 1019.6
20260902114006 70 288 8.0 11.0 0.00 0.00 0.00 62 1017.7
20260902113953 71 302 8.0 11.0 0.00 0.00 0.00 61 1019.6
20260902113506 70 295 8.0 11.0 0.00 0.00 0.00 63 1017.8
20260902113453 71 314 8.0 11.0 0.00 0.00 0.00 62 1019.7
20260902113006 70 266 8.0 11.0 0.00 0.00 0.00 63 1017.7
20260902112954 70 293 8.0 11.0 0.00 0.00 0.00 62 1019.5
20260902112453 70 294 8.0 11.0 0.00 0.00 0.00 62 1019.7
20260902111953 71 298 6.0 9.0 0.00 0.00 0.00 59 1019.8
20260902111506 70 271 7.0 11.0 0.00 0.00 0.00 64 1017.9
20260902111454 71 282 7.0 11.0 0.00 0.00 0.00 62 1020.0
20260902111006 69 280 10.0 15.0 0.00 0.00 0.00 66 1017.9
20260902110953 69 282 10.0 15.0 0.00 0.00 0.00 65 1019.7
20260902110506 69 270 11.0 15.0 0.00 0.00 0.00 64 1018.1
20260902110008 69 276 10.0 13.0 0.00 0.00 0.00 64 1018.1
20260902105959 69 275 10.0 15.0 0.00 0.00 0.00 63 1019.7
20260902105506 69 281 8.0 13.0 0.00 0.00 0.00 65 1017.9
20260902105454 69 282 9.0 13.0 0.00 0.00 0.00 63 1019.8
20260902104953 69 277 8.0 11.0 0.00 0.00 0.00 65 1020.0
20260902104506 68 258 8.0 10.0 0.00 0.00 0.00 66 1018.1
20260902104006 68 262 7.0 10.0 0.00 0.00 0.00 68 1018.1
20260902103953 68 283 8.0 11.0 0.00 0.00 0.00 66 1019.7
20260902103506 68 258 8.0 11.0 0.00 0.00 0.00 67 1018.1
20260902103007 68 260 7.0 11.0 0.00 0.00 0.00 68 1018.0
20260902102506 68 270 7.0 9.0 0.00 0.00 0.00 68 1018.2
20260902102453 67 277 8.0 10.0 0.00 0.00 0.00 67 1020.1
20260902102006 68 280 9.0 12.0 0.00 0.00 0.00 68 1018.4
20260902101953 68 266 9.0 13.0 0.00 0.00 0.00 67 1019.8
20260902101506 68 287 8.0 12.0 0.00 0.00 0.00 69 1018.3
20260902101454 68 251 9.0 13.0 0.00 0.00 0.00 67 1020.0
20260902101005 68 303 6.0 8.0 0.00 0.00 0.00 71 1018.2
20260902100954 68 258 8.0 9.0 0.00 0.00 0.00 69 1020.0
20260902100506 68 297 6.0 8.0 0.00 0.00 0.00 70 1018.1
20260902100453 67 284 7.0 9.0 0.00 0.00 0.00 69 1019.8
20260902100006 68 287 7.0 9.0 0.00 0.00 0.00 70 1018.3
20260902100000 68 294 7.0 10.0 0.00 0.00 0.00 69 1020.1
20260902095506 68 305 6.0 9.0 0.00 0.00 0.00 69 1018.3
20260902095453 68 299 6.0 10.0 0.00 0.00 0.00 67 1020.1
20260902095005 68 320 6.0 8.0 0.00 0.00 0.00 70 1018.2
20260902094954 68 291 6.0 9.0 0.00 0.00 0.00 67 1020.0
20260902094506 69 297 7.0 12.0 0.00 0.00 0.00 71 1018.3
20260902094454 69 275 8.0 12.0 0.00 0.00 0.00 67 1019.9
20260902094006 68 284 9.0 12.0 0.00 0.00 0.00 73 1018.2
20260902093953 69 271 8.0 12.0 0.00 0.00 0.00 69 1020.1
20260902093506 68 277 7.0 12.0 0.00 0.00 0.00 73 1018.2
20260902093453 68 275 7.0 11.0 0.00 0.00 0.00 71 1020.0
20260902093006 68 274 7.0 10.0 0.00 0.00 0.00 74 1018.3
20260902092954 68 295 7.0 11.0 0.00 0.00 0.00 70 1019.9
20260902092506 67 272 7.0 10.0 0.00 0.00 0.00 74 1018.3
20260902092454 68 295 7.0 11.0 0.00 0.00 0.00 70 1020.2
20260902092006 67 254 8.0 13.0 0.00 0.00 0.00 74 1018.4
20260902091506 67 263 9.0 13.0 0.00 0.01 0.00 74 1018.3
20260902091453 67 253 9.0 13.0 0.00 0.00 0.00 71 1020.0
20260902091006 67 273 7.0 11.0 0.00 0.01 0.00 75 1018.4
20260902090953 67 285 7.0 11.0 0.00 0.00 0.00 72 1020.0
20260902090506 67 265 7.0 11.0 0.00 0.01 0.00 75 1018.3
20260902090453 67 298 7.0 10.0 0.00 0.00 0.00 74 1020.1
20260902090006 67 263 7.0 11.0 0.00 0.01 0.00 76 1018.4
20260902085959 67 270 7.0 11.0 0.00 0.00 0.00 74 1020.2
20260902085506 66 277 7.0 11.0 0.00 0.01 0.00 77 1018.5
20260902085454 67 246 7.0 11.0 0.00 0.00 0.00 74 1020.1
20260902084954 67 251 8.0 11.0 0.00 0.00 0.00 74 1020.0
20260902084506 66 259 7.0 10.0 0.00 0.01 0.00 78 1018.2
20260902084454 66 277 8.0 11.0 0.00 0.00 0.00 75 1020.1
20260902084006 66 238 6.0 10.0 0.00 0.01 0.00 77 1018.3
20260902083506 66 228 5.0 8.0 0.00 0.01 0.00 77 1018.4
20260902083453 66 261 5.0 9.0 0.00 0.00 0.00 73 1020.0
20260902083006 66 246 5.0 8.0 0.00 0.01 0.00 78 1018.2
20260902082953 67 265 5.0 9.0 0.00 0.00 0.00 74 1020.1
20260902082506 66 257 5.0 8.0 0.00 0.01 0.00 78 1018.2
20260902082454 66 256 5.0 8.0 0.00 0.00 0.00 75 1019.9
20260902082006 66 270 5.0 8.0 0.00 0.01 0.00 79 1018.2
20260902081953 66 258 5.0 8.0 0.00 0.00 0.00 76 1019.9
20260902081506 65 273 6.0 9.0 0.00 0.01 0.00 79 1018.2
20260902080953 65 273 6.0 9.0 0.00 0.00 0.00 77 1019.8
20260902080506 65 266 6.0 8.0 0.00 0.01 0.00 79 1018.0
20260902080454 65 297 7.0 9.0 0.00 0.00 0.00 77 1019.8
20260902080006 65 291 8.0 10.0 0.00 0.01 0.00 79 1018.1
20260902075959 65 296 8.0 10.0 0.00 0.00 0.00 77 1019.7
20260902075454 65 270 6.0 10.0 0.00 0.00 0.00 78 1020.0
20260902074953 65 258 4.0 8.0 0.00 0.00 0.00 78 1020.1
20260902074506 64 249 5.0 8.0 0.00 0.01 0.00 81 1017.9
20260902074454 65 265 5.0 8.0 0.00 0.00 0.00 79 1019.8
20260902074006 64 250 4.0 8.0 0.00 0.01 0.00 82 1018.1
20260902073505 64 282 5.0 8.0 0.00 0.01 0.00 82 1018.1
20260902073454 64 283 5.0 8.0 0.00 0.00 0.00 82 1020.0
20260902073006 63 290 6.0 9.0 0.00 0.01 0.00 82 1018.0
20260902072953 63 298 6.0 10.0 0.00 0.00 0.00 81 1019.9
20260902072506 64 296 6.0 9.0 0.00 0.01 0.00 82 1018.0
20260902072454 63 318 6.0 10.0 0.00 0.00 0.00 82 1019.7
20260902072006 64 284 6.0 8.0 0.00 0.01 0.00 83 1018.0
20260902071954 64 306 6.0 8.0 0.00 0.00 0.00 82 1019.8
20260902071506 63 257 6.0 8.0 0.00 0.01 0.00 83 1018.0
20260902071453 63 281 6.0 8.0 0.00 0.00 0.00 83 1019.8
20260902070954 63 270 6.0 7.0 0.00 0.00 0.00 84 1019.6
20260902070506 62 283 6.0 8.0 0.00 0.01 0.00 85 1017.9
20260902070007 62 264 6.0 8.0 0.00 0.01 0.00 85 1017.8
20260902065959 62 273 6.0 8.0 0.00 0.00 0.00 85 1019.7
20260902065506 61 252 6.0 8.0 0.00 0.01 0.00 86 1017.7
20260902065454 61 281 6.0 8.0 0.00 0.00 0.00 86 1019.5
20260902065006 61 275 6.0 8.0 0.00 0.01 0.00 86 1017.6
20260902064953 61 312 6.0 8.0 0.00 0.00 0.00 86 1019.6
20260902064506 61 287 6.0 8.0 0.00 0.01 0.00 86 1017.7
20260902064454 61 301 6.0 8.0 0.00 0.00 0.00 87 1019.7
20260902064005 61 271 5.0 8.0 0.00 0.01 0.00 88 1017.7
20260902063953 61 267 5.0 7.0 0.00 0.00 0.00 88 1019.5
20260902063506 60 266 5.0 6.0 0.00 0.01 0.00 88 1017.5
20260902063453 60 260 5.0 8.0 0.00 0.00 0.00 88 1019.6
20260902062506 60 267 5.0 8.0 0.00 0.01 0.00 88 1017.6
20260902062453 59 267 4.0 8.0 0.00 0.00 0.00 88 1019.5
20260902062005 59 261 5.0 7.0 0.00 0.01 0.00 88 1017.4
20260902061953 59 275 5.0 7.0 0.00 0.00 0.00 88 1019.5
20260902061506 59 258 6.0 7.0 0.00 0.01 0.00 88 1017.6
20260902060506 59 266 7.0 8.0 0.00 0.01 0.00 90 1017.6
20260902060454 59 264 7.0 9.0 0.00 0.00 0.00 90 1019.4
20260902060005 59 264 7.0 11.0 0.00 0.01 0.00 90 1017.7
20260902055959 59 265 8.0 11.0 0.00 0.00 0.00 91 1019.3
20260902055506 59 263 7.0 11.0 0.00 0.01 0.00 91 1017.4
20260902055454 59 270 7.0 11.0 0.00 0.00 0.00 93 1019.3
20260902055006 59 262 5.0 8.0 0.00 0.01 0.00 92 1017.4
20260902054506 59 252 4.0 6.0 0.00 0.01 0.00 93 1017.3
20260902054454 58 252 4.0 6.0 0.00 0.00 0.00 95 1019.3
20260902054006 58 254 3.0 4.0 0.00 0.01 0.00 94 1017.3
20260902053953 57 246 3.0 4.0 0.00 0.00 0.00 96 1019.0
20260902053506 57 276 3.0 4.0 0.00 0.01 0.00 94 1017.2
20260902053454 57 251 3.0 4.0 0.00 0.00 0.00 97 1019.3
20260902053006 57 264 4.0 7.0 0.00 0.01 0.00 95 1017.1
20260902052953 56 249 4.0 6.0 0.00 0.00 0.00 97 1019.1
20260902052454 56 261 4.0 6.0 0.00 0.00 0.00 97 1019.1
20260902052006 56 244 3.0 4.0 0.00 0.01 0.00 95 1017.2
20260902051954 56 269 3.0 4.0 0.00 0.00 0.00 97 1019.1
20260902051506 56 258 3.0 4.0 0.00 0.01 0.00 95 1017.1
20260902051454 55 261 3.0 4.0 0.00 0.00 0.00 97 1019.1
20260902051006 56 254 3.0 4.0 0.00 0.01 0.00 95 1017.2
20260902050953 55 254 3.0 4.0 0.00 0.00 0.00 97 1019.1
20260902050506 56 246 3.0 4.0 0.00 0.01 0.00 95 1017.0
20260902050453 55 240 3.0 4.0 0.00 0.00 0.00 97 1019.2
20260902050008 55 245 2.0 3.0 0.00 0.01 0.00 94 1016.9
20260902045505 55 241 2.0 3.0 0.00 0.01 0.00 94 1016.9
20260902045454 55 236 2.0 3.0 0.00 0.00 0.00 97 1019.0
20260902045006 55 234 2.0 2.0 0.00 0.01 0.00 94 1017.0
20260902044954 55 236 2.0 2.0 0.00 0.00 0.00 97 1019.0
20260902044006 55 251 1.0 3.0 0.00 0.01 0.00 94 1016.9
20260902043954 55 244 1.0 3.0 0.00 0.00 0.00 97 1019.1
20260902043506 55 243 2.0 3.0 0.00 0.01 0.00 94 1016.8
20260902043454 55 250 2.0 3.0 0.00 0.00 0.00 97 1018.8
20260902043006 55 264 3.0 3.0 0.00 0.01 0.00 94 1016.8
20260902042953 55 268 2.0 3.0 0.00 0.00 0.00 97 1018.9
20260902042506 55 266 3.0 4.0 0.00 0.01 0.00 95 1016.9
20260902042005 55 239 2.0 4.0 0.00 0.01 0.00 95 1016.8
20260902041954 55 220 2.0 3.0 0.00 0.00 0.00 97 1018.9
20260902041506 55 234 2.0 2.0 0.00 0.01 0.00 95 1016.7
20260902041453 55 205 2.0 2.0 0.00 0.00 0.00 97 1018.8
20260902041006 55 231 2.0 2.0 0.00 0.01 0.00 94 1016.7
20260902040953 55 217 2.0 3.0 0.00 0.00 0.00 97 1018.6
20260902040454 55 225 2.0 3.0 0.00 0.00 0.00 97 1018.7
20260902040005 55 237 2.0 3.0 0.00 0.01 0.00 94 1016.7
20260902035959 55 217 2.0 3.0 0.00 0.00 0.00 97 1018.8
20260902035454 55 210 2.0 4.0 0.00 0.00 0.00 97 1018.6
20260902035006 55 225 3.0 4.0 0.00 0.01 0.00 94 1016.8
20260902034953 54 227 3.0 4.0 0.00 0.00 0.00 97 1018.6
20260902034506 55 226 3.0 4.0 0.00 0.01 0.00 94 1016.8
20260902034453 54 228 3.0 4.0 0.00 0.00 0.00 97 1018.8
20260902034005 55 234 3.0 4.0 0.00 0.01 0.00 94 1016.7
20260902033506 55 243 3.0 4.0 0.00 0.01 0.00 94 1016.7
20260902033454 54 214 3.0 4.0 0.00 0.00 0.00 96 1019.0
20260902032953 54 226 3.0 4.0 0.00 0.00 0.00 96 1019.1
20260902032506 54 221 2.0 4.0 0.00 0.01 0.00 93 1016.8
20260902032454 54 230 2.0 4.0 0.00 0.00 0.00 96 1019.0
20260902032005 54 215 2.0 2.0 0.00 0.01 0.00 93 1016.8
20260902031954 54 211 2.0 2.0 0.00 0.00 0.00 96 1018.7
20260902031506 54 211 1.0 2.0 0.00 0.01 0.00 93 1016.7
20260902031453 54 192 1.0 2.0 0.00 0.00 0.00 96 1018.9
20260902031006 54 259 0.0 2.0 0.00 0.01 0.00 93 1016.8
20260902030953 54 214 1.0 2.0 0.00 0.00 0.00 96 1019.0
20260902030454 54 254 2.0 2.0 0.00 0.00 0.00 96 1018.9
20260902030006 54 280 2.0 3.0 0.00 0.01 0.00 93 1017.0
20260902025959 54 254 2.0 3.0 0.00 0.00 0.00 96 1019.2
20260902025506 54 257 3.0 4.0 0.00 0.01 0.00 93 1017.0
20260902025453 54 223 2.0 4.0 0.00 0.00 0.00 96 1019.0
20260902025006 54 237 3.0 4.0 0.00 0.01 0.00 93 1016.9
20260902024953 54 218 2.0 4.0 0.00 0.00 0.00 95 1019.0
20260902024505 54 222 2.0 3.0 0.00 0.01 0.00 93 1016.8
20260902024454 54 220 2.0 2.0 0.00 0.00 0.00 95 1018.9
20260902023953 54 236 2.0 4.0 0.00 0.00 0.00 95 1018.7
20260902023506 54 247 2.0 4.0 0.00 0.01 0.00 93 1016.9
20260902023006 54 225 2.0 4.0 0.00 0.01 0.00 93 1016.9
20260902022954 54 229 2.0 4.0 0.00 0.00 0.00 95 1018.8
20260902022454 54 228 2.0 4.0 0.00 0.00 0.00 94 1019.0
20260902022006 54 245 0.0 2.0 0.00 0.01 0.00 92 1017.0
20260902021953 54 219 2.0 4.0 0.00 0.00 0.00 94 1018.9
20260902021454 54 232 2.0 4.0 0.00 0.00 0.00 94 1019.0
20260902021006 54 0 0.0 0.0 0.00 0.01 0.00 92 1016.9
20260902020954 54 239 2.0 3.0 0.00 0.00 0.00 93 1019.1
20260902020505 54 237 0.0 2.0 0.00 0.01 0.00 92 1017.0
20260902020454 54 230 2.0 2.0 0.00 0.00 0.00 93 1019.0
20260902020006 54 225 1.0 2.0 0.00 0.01 0.00 92 1017.1
20260902015959 54 232 2.0 3.0 0.00 0.00 0.00 93 1019.0
20260902015006 55 225 0.0 2.0 0.00 0.01 0.00 91 1017.0
20260902014954 54 238 2.0 3.0 0.00 0.00 0.00 93 1019.0
20260902014505 55 225 0.0 2.0 0.00 0.01 0.00 91 1017.0
20260902014454 54 189 1.0 2.0 0.00 0.00 0.00 93 1019.0
20260902014006 55 0 0.0 0.0 0.00 0.01 0.00 91 1017.0
20260902013953 54 184 1.0 2.0 0.00 0.00 0.00 93 1019.0